Cloud_Cover
100 100 100 100 100 100 100 100 100 100 100 100 100 100 100 100 100 100 100 100 100 100 100 100 100 100 100 100 100 100 100 100 100 100 57 90 100 100
100 100 100 100 100 100 100 100 100 100 100 100 100 100 100 100 100 100 100 100 100 100 100 100 100 100 100 100 100 100 100 100 100 100 100 100 100 100
100 100 100 100 100 100 100 100 100 100 100 100 100 100 100 100 100 100 100 100 100 100 100 100 100 100 100 100 100 100 100 100 100 100 100 100 100 100
100 100 100 100 100 100 100 100 100 100 100 100 100 100 100 100 100 100 100 100 100 100 100 100 100 100 100 100 100 100 100 100 100 100 100 100 100 10
99 54 99 100 99 99 100 100 100 100 100 100 100 100 100 100 100 100 100 100 100 100 99 100 98 29 74 100 100 100 100 100 100 100 100 100 38 4
73 74 26 73 97 100 100 100 100 100 100 100 100 100 100 100 100 100 100 100 100 100 100 25 5 15 80 100 100 100 100 100 100 100 100 82 5 1
4 8 84 10 41 100 100 100 99 100 100 100 100 100 100 100 100 100 100 100 100 100 81 42 5 12 74 100 100 100 100 100 100 100 97 5 4 0
34 4 5 21 5 7 100 96 100 100 100 100 100 100 100 100 100 100 100 100 100 86 12 11 4 18 94 100 100 100 100 100 100 99 7 5 6 5
100 46 6 5 84 89 77 100 100 100 100 100 100 100 100 100 100 100 100 100 93 15 6 4 12 100 100 100 100 100 100 100 100 21 5 12 17 21
98 98 92 67 48 50 92 100 100 100 100 100 100 100 100 100 100 100 100 100 83 72 86 96 89 100 100 100 100 100 100 100 70 5 5 8 20 44
5 7 44 93 80 72 70 100 100 100 100 100 100 100 100 100 100 100 100 86 88 100 90 100 100 100 100 100 100 100 100 98 42 16 55 82 65 94
8 5 5 68 100 95 72 100 100 100 100 100 100 100 100 100 100 100 98 100 99 58 100 100 100 100 100 100 100 100 100 100 38 100 100 100 78 53
100 37 31 99 100 100 98 100 100 100 100 100 100 100 100 100 100 100 100 100 100 100 100 100 100 100 100 100 100 100 100 83 6 5 25 5 5 5
100 87 100 100 100 100 100 100 100 100 100 100 100 100 98 45 100 100 100 100 100 100 100 100 100 100 100 100 100 100 100 62 12 5 5 6 6 5
100 88 100 100 100 63 76 100 100 100 100 100 83 49 98 70 85 100 100 100 100 100 100 100 100 100 100 100 100 100 100 58 45 43 54 55 52 7
100 100 100 100 60 25 75 100 100 99 96 87 99 100 72 90 98 100 100 100 100 100 100 100 100 100 100 100 100 100 100 99 95 73 70 46 22 5
100 100 95 100 74 38 47 84 90 100 85 100 100 100 100 93 100 100 100 100 100 100 100 100 100 100 100 100 100 100 100 84 98 96 82 72 9 5
100 91 90 97 53 63 66 80 71 95 85 100 100 100 100 100 100 100 100 100 100 100 100 100 100 100 100 100 100 100 100 94 88 96 95 92 58 5
100 100 98 99 99 84 61 100 100 99 100 100 100 100 100 100 100 100 100 100 100 100 100 100 100 100 100 100 100 100 100 85 70 71 41 77 100 86
100 100 100 100 76 79 84 100 100 100 100 100 100 100 100 100 100 100 100 100 100 100 100 100 100 100 100 100 100 100 100 83 81 98 100 100 100 100
100 100 100 100 98 100 100 99 100 100 100 100 100 100 100 100 100 100 100 100 100 100 100 100 100 100 100 100 100 86 77 100 100 100 100 100 100 100
100 100 100 100 100 96 100 100 100 100 100 100 100 100 100 100 100 100 100 100 100 100 100 100 100 100 100 100 100 100 100 100 100 100 100 100 100 100
100 100 100 100 100 100 100 100 100 100 100 100 100 100 100 100 100 100 100 100 100 100 100 100 100 100 100 100 100 100 100 100 100 100 100 100 100 100